Radiation Dose at Monitoring Post of Fukushima Daini Nuclear Power Station
Date,Time,MP-1(microSv/h),MP-2(microSv/h),MP-3(microSv/h),MP-4(microSv/h),MP-5(microSv/h),MP-6(microSv/h),MP-7(microSv/h),Wind Direction,Wind Velocity(m/s),Rain
2023/11/30,00:00,0.150,0.136,0.215,0.205,0.210,0.121,0.078,west,10.7,No
2023/11/30,00:10,0.150,0.135,0.216,0.203,0.210,0.121,0.078,west,9.2,No
2023/11/30,00:20,0.150,0.135,0.216,0.205,0.209,0.121,0.077,west-northwest,9.5,No
2023/11/30,00:30,0.149,0.136,0.216,0.205,0.211,0.122,0.078,west-northwest,8.8,No
2023/11/30,00:40,0.150,0.135,0.215,0.205,0.210,0.121,0.078,west-northwest,9.0,No
2023/11/30,00:50,0.150,0.136,0.215,0.204,0.209,0.120,0.079,west,11.1,No
2023/11/30,01:00,0.149,0.136,0.215,0.204,0.211,0.120,0.078,west,10.6,No
2023/11/30,01:10,0.151,0.136,0.216,0.204,0.210,0.122,0.078,west-northwest,10.3,No
2023/11/30,01:20,0.150,0.136,0.216,0.204,0.208,0.121,0.078,west-northwest,10.6,No
2023/11/30,01:30,0.150,0.135,0.215,0.204,0.210,0.121,0.078,west-northwest,11.1,No
2023/11/30,01:40,0.150,0.135,0.217,0.204,0.210,0.122,0.078,west-northwest,10.6,No
2023/11/30,01:50,0.151,0.136,0.216,0.203,0.210,0.121,0.078,west-northwest,11.2,No
2023/11/30,02:00,0.149,0.136,0.215,0.205,0.211,0.121,0.078,west-northwest,12.3,No
2023/11/30,02:10,0.150,0.136,0.215,0.204,0.210,0.121,0.079,west-northwest,11.5,No
2023/11/30,02:20,0.150,0.136,0.215,0.204,0.211,0.122,0.078,west-northwest,11.1,No
2023/11/30,02:30,0.150,0.136,0.216,0.205,0.211,0.121,0.078,west-northwest,10.1,No
2023/11/30,02:40,0.151,0.135,0.216,0.205,0.210,0.121,0.078,west-northwest,10.9,No
2023/11/30,02:50,0.149,0.136,0.215,0.205,0.210,0.120,0.078,northwest,7.3,No
2023/11/30,03:00,0.151,0.136,0.215,0.205,0.210,0.121,0.077,west-northwest,9.0,No
2023/11/30,03:10,0.151,0.136,0.215,0.205,0.210,0.120,0.078,west-northwest,9.2,No
2023/11/30,03:20,0.150,0.137,0.216,0.204,0.210,0.121,0.077,west-northwest,9.8,No
2023/11/30,03:30,0.150,0.137,0.216,0.204,0.211,0.120,0.077,west-northwest,10.4,No
2023/11/30,03:40,0.150,0.136,0.216,0.205,0.209,0.121,0.078,west-northwest,10.6,No
2023/11/30,03:50,0.151,0.137,0.216,0.204,0.210,0.121,0.078,west,12.2,No
2023/11/30,04:00,0.151,0.135,0.216,0.206,0.210,0.121,0.077,west-northwest,11.7,No
2023/11/30,04:10,0.151,0.136,0.217,0.204,0.209,0.121,0.078,west,12.5,No
2023/11/30,04:20,0.151,0.136,0.217,0.204,0.210,0.121,0.078,west,10.9,No
2023/11/30,04:30,0.150,0.138,0.216,0.205,0.210,0.122,0.078,west,10.1,No
2023/11/30,04:40,0.151,0.136,0.216,0.206,0.209,0.121,0.078,west,7.8,No
2023/11/30,04:50,0.151,0.136,0.216,0.205,0.211,0.121,0.079,west,9.5,No
2023/11/30,05:00,0.151,0.136,0.215,0.204,0.210,0.121,0.078,west,11.2,No
2023/11/30,05:10,0.150,0.137,0.215,0.206,0.211,0.121,0.078,west,10.6,No
2023/11/30,05:20,0.149,0.136,0.217,0.206,0.210,0.121,0.077,west,9.2,No
2023/11/30,05:30,0.150,0.136,0.215,0.206,0.210,0.120,0.077,west,8.4,No
2023/11/30,05:40,0.151,0.137,0.216,0.205,0.210,0.121,0.078,west,7.3,No
2023/11/30,05:50,0.150,0.137,0.217,0.204,0.210,0.121,0.077,west-southwest,7.3,No
2023/11/30,06:00,0.152,0.136,0.216,0.205,0.211,0.121,0.078,west,5.5,No
2023/11/30,06:10,0.151,0.136,0.216,0.205,0.211,0.121,0.078,south-southwest,1.6,No
2023/11/30,06:20,0.150,0.136,0.216,0.205,0.209,0.121,0.078,south-southwest,1.8,No
2023/11/30,06:30,0.150,0.136,0.216,0.204,0.210,0.122,0.078,southwest,1.9,No
2023/11/30,06:40,0.149,0.136,0.216,0.205,0.209,0.121,0.077,west,3.4,No
2023/11/30,06:50,0.150,0.136,0.216,0.205,0.210,0.121,0.078,west,5.4,No
2023/11/30,07:00,0.152,0.136,0.215,0.204,0.210,0.121,0.078,west,5.6,No
2023/11/30,07:10,0.150,0.136,0.217,0.205,0.210,0.121,0.079,west,5.4,No
2023/11/30,07:20,0.150,0.136,0.215,0.205,0.210,0.120,0.078,west,4.0,No
2023/11/30,07:30,0.150,0.136,0.216,0.204,0.209,0.121,0.078,west,4.3,No
2023/11/30,07:40,0.150,0.136,0.216,0.204,0.210,0.121,0.078,west,4.9,No
2023/11/30,07:50,0.151,0.136,0.216,0.205,0.210,0.121,0.078,west,4.8,No
2023/11/30,08:00,0.150,0.137,0.217,0.205,0.209,0.120,0.078,west,6.9,No
2023/11/30,08:10,0.151,0.136,0.216,0.204,0.210,0.121,0.077,west,5.5,No
2023/11/30,08:20,0.150,0.137,0.216,0.205,0.210,0.121,0.078,west-southwest,4.7,No
2023/11/30,08:30,0.150,0.136,0.216,0.205,0.209,0.121,0.078,west,7.4,No
2023/11/30,08:40,0.150,0.136,0.215,0.204,0.210,0.121,0.077,west,3.7,No
2023/11/30,08:50,0.150,0.135,0.216,0.204,0.210,0.120,0.078,west,7.1,Yes
2023/11/30,09:00,0.150,0.136,0.215,0.203,0.210,0.120,0.078,west-northwest,8.7,Yes
2023/11/30,09:10,0.150,0.136,0.216,0.204,0.211,0.121,0.079,west-northwest,10.1,Yes
2023/11/30,09:20,0.150,0.136,0.216,0.205,0.210,0.121,0.078,west-northwest,8.7,Yes
2023/11/30,09:30,0.150,0.137,0.215,0.204,0.211,0.121,0.078,west,9.2,No
2023/11/30,09:40,0.150,0.136,0.215,0.206,0.212,0.121,0.078,west-northwest,6.8,No
2023/11/30,09:50,0.151,0.136,0.216,0.204,0.209,0.120,0.078,west-northwest,6.3,No
2023/11/30,10:00,0.150,0.136,0.216,0.204,0.210,0.122,0.078,west,6.9,No
2023/11/30,10:10,0.151,0.136,0.216,0.203,0.208,0.122,0.078,west-northwest,5.7,No
2023/11/30,10:20,0.150,0.135,0.215,0.205,0.210,0.122,0.078,west,6.2,No
2023/11/30,10:30,0.150,0.135,0.214,0.205,0.208,0.122,0.078,west,8.1,No
2023/11/30,10:40,0.150,0.136,0.215,0.204,0.211,0.121,0.078,west-northwest,5.3,Yes
2023/11/30,10:50,0.150,0.137,0.216,0.205,0.209,0.122,0.078,west,6.5,No
2023/11/30,11:00,0.150,0.136,0.214,0.204,0.210,0.121,0.078,west-northwest,7.5,No
2023/11/30,11:10,0.150,0.137,0.216,0.205,0.209,0.122,0.078,west-northwest,8.8,No
2023/11/30,11:20,0.149,0.135,0.215,0.205,0.211,0.122,0.078,west-northwest,7.8,No
2023/11/30,11:30,0.150,0.136,0.216,0.204,0.208,0.121,0.078,west-northwest,7.7,No
2023/11/30,11:40,0.150,0.136,0.215,0.205,0.212,0.122,0.078,northwest,8.1,Yes
2023/11/30,11:50,0.150,0.136,0.215,0.204,0.210,0.121,0.077,northwest,7.6,No
2023/11/30,12:00,0.151,0.136,0.214,0.205,0.211,0.120,0.078,north-northwest,5.9,Yes
2023/11/30,12:10,0.152,0.136,0.215,0.204,0.210,0.121,0.078,northwest,8.1,Yes
2023/11/30,12:20,0.152,0.137,0.217,0.204,0.212,0.121,0.078,north-northwest,7.1,Yes
2023/11/30,12:30,0.152,0.136,0.217,0.206,0.211,0.121,0.077,northwest,8.6,Yes
2023/11/30,12:40,0.152,0.137,0.217,0.205,0.213,0.122,0.079,northwest,8.5,Yes
2023/11/30,12:50,0.153,0.137,0.218,0.206,0.213,0.122,0.079,northwest,6.1,Yes
2023/11/30,13:00,0.152,0.137,0.217,0.207,0.212,0.122,0.079,northwest,4.8,Yes
2023/11/30,13:10,0.151,0.138,0.216,0.205,0.211,0.123,0.079,north-northwest,2.4,No
2023/11/30,13:20,0.151,0.137,0.216,0.206,0.211,0.123,0.080,north-northwest,5.1,Yes
2023/11/30,13:30,0.152,0.137,0.216,0.204,0.211,0.122,0.079,north-northwest,4.4,Yes
2023/11/30,13:40,0.151,0.136,0.217,0.205,0.212,0.122,0.078,north-northwest,4.5,Yes
2023/11/30,13:50,0.151,0.137,0.216,0.204,0.210,0.121,0.079,northwest,5.0,Yes
2023/11/30,14:00,0.151,0.137,0.217,0.205,0.211,0.122,0.079,north,4.6,No
2023/11/30,14:10,0.151,0.136,0.217,0.205,0.210,0.122,0.079,north,4.0,No
2023/11/30,14:20,0.150,0.136,0.217,0.205,0.212,0.121,0.078,north,3.7,Yes
2023/11/30,14:30,0.151,0.136,0.217,0.205,0.212,0.121,0.079,north-northwest,4.2,Yes
2023/11/30,14:40,0.150,0.136,0.217,0.206,0.211,0.122,0.078,north-northwest,6.9,Yes
2023/11/30,14:50,0.151,0.136,0.216,0.205,0.210,0.121,0.079,north-northwest,5.9,Yes
2023/11/30,15:00,0.151,0.136,0.217,0.206,0.211,0.122,0.078,northwest,7.4,No
2023/11/30,15:10,0.151,0.138,0.217,0.206,0.212,0.121,0.078,northwest,7.7,No
2023/11/30,15:20,0.151,0.137,0.217,0.206,0.210,0.121,0.078,north-northwest,6.5,No
2023/11/30,15:30,0.151,0.137,0.216,0.206,0.211,0.122,0.079,north-northwest,6.8,No
2023/11/30,15:40,0.151,0.137,0.218,0.206,0.213,0.122,0.079,north-northwest,5.1,No
2023/11/30,15:50,0.151,0.137,0.218,0.207,0.212,0.121,0.078,north-northwest,4.5,Yes
2023/11/30,16:00,0.152,0.137,0.217,0.206,0.211,0.122,0.078,north-northwest,5.8,Yes
2023/11/30,16:10,0.152,0.137,0.217,0.206,0.212,0.123,0.079,north-northwest,6.9,Yes
2023/11/30,16:20,0.152,0.138,0.218,0.205,0.213,0.124,0.079,north-northwest,7.8,No
2023/11/30,16:30,0.151,0.137,0.218,0.206,0.211,0.122,0.079,north-northwest,10.1,No
2023/11/30,16:40,0.152,0.137,0.217,0.206,0.212,0.123,0.079,northwest,11.1,No
2023/11/30,16:50,0.152,0.138,0.218,0.206,0.212,0.122,0.079,north-northwest,10.4,No
2023/11/30,17:00,0.151,0.137,0.217,0.208,0.212,0.123,0.079,north-northwest,10.1,No
2023/11/30,17:10,0.152,0.137,0.219,0.206,0.211,0.122,0.078,north-northwest,11.5,No
2023/11/30,17:20,0.151,0.136,0.217,0.205,0.211,0.122,0.078,northwest,13.1,No
2023/11/30,17:30,0.152,0.138,0.217,0.206,0.212,0.122,0.078,west-northwest,13.3,No
2023/11/30,17:40,0.151,0.137,0.218,0.207,0.212,0.122,0.079,west-northwest,12.9,No
2023/11/30,17:50,0.151,0.137,0.218,0.206,0.211,0.122,0.079,west-northwest,11.8,No
2023/11/30,18:00,0.152,0.137,0.217,0.205,0.211,0.123,0.079,northwest,10.1,No
2023/11/30,18:10,0.153,0.137,0.219,0.205,0.211,0.122,0.079,northwest,10.1,No
2023/11/30,18:20,0.152,0.138,0.218,0.207,0.211,0.122,0.078,northwest,9.0,No
2023/11/30,18:30,0.152,0.138,0.216,0.207,0.211,0.122,0.078,north-northwest,8.1,No
2023/11/30,18:40,0.152,0.136,0.217,0.206,0.211,0.122,0.078,north-northwest,7.3,No
2023/11/30,18:50,0.153,0.137,0.217,0.205,0.212,0.122,0.079,northwest,9.0,No
2023/11/30,19:00,0.152,0.137,0.216,0.205,0.211,0.122,0.079,northwest,8.7,No
2023/11/30,19:10,0.152,0.137,0.218,0.205,0.210,0.122,0.078,northwest,9.2,No
2023/11/30,19:20,0.151,0.138,0.217,0.206,0.211,0.121,0.079,northwest,11.1,No
2023/11/30,19:30,0.151,0.137,0.218,0.206,0.212,0.122,0.078,northwest,9.5,No
2023/11/30,19:40,0.151,0.137,0.217,0.207,0.211,0.121,0.079,north-northwest,7.5,No
2023/11/30,19:50,0.151,0.136,0.217,0.206,0.210,0.121,0.079,north-northwest,7.7,No
2023/11/30,20:00,0.151,0.137,0.217,0.206,0.211,0.122,0.079,north,5.5,No
2023/11/30,20:10,0.151,0.136,0.218,0.205,0.211,0.123,0.079,north,6.2,No
2023/11/30,20:20,0.151,0.137,0.216,0.205,0.210,0.121,0.079,north,5.3,No
2023/11/30,20:30,0.152,0.137,0.217,0.205,0.210,0.121,0.079,north,5.5,No
2023/11/30,20:40,0.152,0.136,0.217,0.205,0.211,0.122,0.079,north,5.2,No
2023/11/30,20:50,0.150,0.137,0.217,0.205,0.211,0.121,0.079,north,5.2,No
2023/11/30,21:00,0.152,0.137,0.217,0.206,0.212,0.121,0.078,north,4.3,No
2023/11/30,21:10,0.151,0.136,0.217,0.207,0.210,0.121,0.078,north-northwest,3.9,No
2023/11/30,21:20,0.151,0.137,0.218,0.205,0.210,0.122,0.078,north-northwest,3.5,No
2023/11/30,21:30,0.152,0.136,0.216,0.206,0.211,0.121,0.079,north-northwest,2.6,No
2023/11/30,21:40,0.152,0.136,0.216,0.206,0.211,0.122,0.078,north-northwest,2.4,No
2023/11/30,21:50,0.151,0.136,0.217,0.205,0.212,0.121,0.078,north-northwest,1.7,No
2023/11/30,22:00,0.151,0.137,0.218,0.205,0.210,0.121,0.079,north-northwest,1.7,No
2023/11/30,22:10,0.152,0.136,0.216,0.205,0.211,0.121,0.078,north-northwest,1.3,No
2023/11/30,22:20,0.150,0.135,0.217,0.205,0.210,0.122,0.079,north-northwest,1.5,No
2023/11/30,22:30,0.151,0.136,0.217,0.205,0.210,0.122,0.079,north-northwest,1.1,No
2023/11/30,22:40,0.151,0.137,0.216,0.205,0.210,0.121,0.079,north-northwest,1.9,No
2023/11/30,22:50,0.151,0.136,0.217,0.206,0.210,0.122,0.078,north,2.1,No
2023/11/30,23:00,0.151,0.135,0.216,0.205,0.210,0.121,0.079,north-northwest,2.3,No
2023/11/30,23:10,0.150,0.137,0.216,0.205,0.211,0.121,0.078,north-northwest,2.2,No
2023/11/30,23:20,0.151,0.136,0.216,0.205,0.209,0.121,0.078,north-northwest,2.9,No
2023/11/30,23:30,0.150,0.136,0.217,0.205,0.209,0.121,0.079,north-northwest,2.8,No
2023/11/30,23:40,0.151,0.136,0.216,0.206,0.210,0.121,0.078,northwest,2.9,No
2023/11/30,23:50,0.151,0.137,0.217,0.206,0.211,0.121,0.079,northwest,3.3,No
